Regional Weather Roundup
Issued by NWS

Home | Current Version | Previous Version | Text Only | Print | Product List | Glossary On
Versions: 1 2 3 4 5 6 7 8 9 10 11 12 13 14 15 16 17 18 19 20 21 22 23 24 25 26 27 28 29 30 31 32 33 34 35 36 37 38 39
000
ASUS45 KREV 280010
RWRNV
NEVADA REGIONAL WEATHER ROUNDUP
NATIONAL WEATHER SERVICE RENO NV
400 PM PST SAT DEC 27 2014

NOTE: "FAIR" INDICATES FEW OR NO CLOUDS BELOW 12,000 FEET WITH NO
SIGNIFICANT WEATHER AND/OR OBSTRUCTIONS TO VISIBILITY.

NVZ001-003-004-280100-
WESTERN NEVADA

CITY           SKY/WX    TMP DP  RH WIND       PRES   REMARKS
RENO           MOCLDY    39  13  34 CALM      30.25S
6HR MIN TEMP:  26; 6HR MAX TEMP:  41;

CARSON CITY    FAIR      36  16  44 CALM      30.26R
MINDEN         FAIR      36  14  41 CALM      30.26
SLIDE MTN        N/A     32   0  25 NW10        N/A
PYRAMID LAKE     N/A     37 N/A N/A N2          N/A
FALLON         MOCLDY    38  14  37 CALM      30.28S
6HR MIN TEMP:  29; 6HR MAX TEMP:  39;

LOVELOCK       PTCLDY    35  16  45 S3        30.29R
6HR MIN TEMP:  24; 6HR MAX TEMP:  36;

HAWTHORNE      CLEAR     37  14  38 CALM      30.28S
$$

NVZ002-CAZ072-073-280100-
NORTHERN AND CENTRAL SIERRA

CITY           SKY/WX    TMP DP  RH WIND       PRES   REMARKS
S. LAKE TAHOE  CLEAR     36  21  54 CALM      30.22S
6HR MIN TEMP:  26; 6HR MAX TEMP:  44;

TRUCKEE        CLEAR     39   9  28 W7        30.23R
                   6HR MAX TEMP:  43;

SQUAW VLY 8000   N/A     28  12  50 CALM        N/A
SUSANVILLE     CLEAR    N/A N/A N/A E3          N/A
BLUE CANYON    CLEAR     36  23  59 VRB3      30.29R
MAMMOTH LAKES  FAIR      30   3  31 SE12      30.23R
BRIDGEPORT     FAIR      43   1  17 W6        30.17S
$$

NVZ030-031-036-280100-
NORTHERN NEVADA

CITY           SKY/WX    TMP DP  RH WIND       PRES   REMARKS
ELKO           MOCLDY    28  16  60 SW5       30.25S
6HR MIN TEMP:  20; 6HR MAX TEMP:  29;

WINNEMUCCA     CLOUDY    33  21  61 S8        30.26S
6HR MIN TEMP:  29; 6HR MAX TEMP:  35;

WENDOVER       CLOUDY    30  12  47 SE3       30.29F
$$

NVZ035-037-280100-
CENTRAL NEVADA

CITY           SKY/WX    TMP DP  RH WIND       PRES   REMARKS
ELY            CLEAR     28  10  46 E3        30.23F
6HR MIN TEMP:  17; 6HR MAX TEMP:  31;

EUREKA           N/A     27  14  58 S3        30.23F
6HR MIN TEMP:  18; 6HR MAX TEMP:  28;

$$

NVZ013-014-280100-
SOUTH CENTRAL NEVADA

CITY           SKY/WX    TMP DP  RH WIND       PRES   REMARKS
TONOPAH        CLEAR     32   6  33 SW5       30.27R
6HR MIN TEMP:  25; 6HR MAX TEMP:  34;

$$

NVZ017-020-022-280100-
SOUTHERN NEVADA

CITY           SKY/WX    TMP DP  RH WIND       PRES   REMARKS
LAS VEGAS      PTCLDY    47   6  18 S3        30.31S
6HR MIN TEMP:  45; 6HR MAX TEMP:  48;

N. LAS VEGAS   CLEAR     45   5  19 SE6       30.34S
6HR MIN TEMP:  43; 6HR MAX TEMP:  47;

NELLIS AFB     CLEAR     46  10  22 E9        30.35S
6HR MIN TEMP:  45; 6HR MAX TEMP:  48;

HENDERSON      CLEAR     44   7  21 NE3       30.35S
6HR MIN TEMP:  42; 6HR MAX TEMP:  46;

MERCURY        CLEAR     42   6  22 SE9       30.30R
6HR MIN TEMP:  39; 6HR MAX TEMP:  44;

$$



USA.gov is the U.S. government's official web portal to all federal, state and local government web resources and services.